Location: ????????
(55.6333°N, 37.7000°E)
Time: 07:49:02
(UTC+00:00)

Cosmos 1302 Rocket - Pass Details

Date: 19 May 2025
Orbit: 752 x 772 km, 74.0° (Epoch: 23 June)

Event Time Altitude Azimuth Distance (km) Brightness Sun altitude
Rises 22:50:56 0° 331° (NNW) 3,226 7.9 -12.3°
Reaches altitude 10° 22:53:18 10° 332° (NNW) 2,299 7.1 -12.1°
Maximum altitude 22:58:32 86° 62° (ENE) 771 4.0 -11.9°
Drops below altitude 10° 23:03:46 10° 152° (SSE) 2,297 6.1 -11.6°
Enters shadow 23:05:53 - 153° (SSE) 3,126 6.8 -11.5°
